Regional Weather Roundup
Issued by NWS

Home | Current Version | Previous Version | Graphics & Text | Print | Product List | Glossary On
Versions: 1 2 3 4 5 6 7 8 9 10 11 12 13 14 15 16 17 18 19 20 21 22 23 24 25 26 27 28 29 30 31 32 33 34 35 36 37 38 39 40 41 42 43 44 45 46 47 48 49 50
000
ASUS43 KMKX 270811
RWRWI

WISCONSIN REGIONAL WEATHER ROUNDUP
NATIONAL WEATHER SERVICE MILWAUKEE/SULLIVAN WI
200 AM CST SAT DEC 27 2014

NOTE: "FAIR" INDICATES FEW OR NO CLOUDS BELOW 12,000 FEET WITH NO
SIGNIFICANT WEATHER AND/OR OBSTRUCTIONS TO VISIBILITY.

WIZ001-002-006>008-014>016-023>028-270900-
NORTHWEST WISCONSIN

CITY           SKY/WX    TMP DP  RH WIND       PRES   REMARKS
SUPERIOR ARPT  CLOUDY    27  20  74 N7        30.06F WCI  20
ASHLAND        LGT SNOW  28  26  92 N8        30.04F FOG     WCI  20
HAYWARD        LGT SNOW  27  24  89 N7        30.00F FOG     WCI  19
SIREN          LGT SNOW  26  24  91 N6        30.05R WCI  20
CUMBERLAND     LGT SNOW  28  27  93 N8        29.99R WCI  20
RICE LAKE      LGT SNOW  28  26  91 N8        30.00R WCI  20
CHETEK         LGT SNOW  29  27  94 N3        29.99S
LADYSMITH      LGT SNOW  30  28  93 N9        29.99S WCI  21
EAU CLAIRE     LGT SNOW  30  27  88 N7        29.96S FOG     WCI  23
MENOMONIE      LGT SNOW  30  29  96 N6        29.98S WCI  24
NEW RICHMOND   LGT SNOW  28  27  99 N9        30.00F WCI  19
OSCEOLA        LGT SNOW  27  27 100 N8        30.04F WCI  19
$$

WIZ003>005-009-010-017-018-270900-
NORTH CENTRAL WISCONSIN

CITY           SKY/WX    TMP DP  RH WIND       PRES   REMARKS
MANITOWISH WTR FLURRIES  28  28 100 N5        29.96F WCI  22
ARBOR VITAE    LGT SNOW  32  30  94 N5        29.96F WCI  27
WOODRUFF       LGT SNOW  32  30  94 N5        29.96F WCI  27
RHINELANDER    SNOW      29  27  92 NE3       29.96F VSB 1/2
EAGLE RIVER    LGT SNOW  29  29 100 CALM      29.95F VSB 1
LAND O LAKES   LGT SNOW  29  28  96 N5        29.97F WCI  24
PHILLIPS       LGT SNOW  28  26  95 N9        29.96F WCI  19
TOMAHAWK       LGT SNOW  29  28  95 CALM      29.96F VSB 1
MEDFORD        LGT SNOW  30  29  96 NE7       29.93F WCI  23
MERRILL        LGT SNOW  31  31 100 NE5       29.95F WCI  26
$$

WIZ029-030-035-036-043>047-270900-
CENTRAL WISCONSIN

CITY           SKY/WX    TMP DP  RH WIND       PRES   REMARKS
WAUSAU         LGT SNOW  33  31  92 E5        29.94S FOG     WCI  29
MOSINEE        CLOUDY    32  32 100 E3        29.96R
MARSHFIELD     LGT SNOW  33  31  92 E7        29.93F FOG     WCI  27
STEVENS POINT  CLOUDY    31  31 100 E3        29.96R FOG
WAUPACA        FOG       35  34  96 CALM      29.98R VSB 3/4
WAUTOMA        FOG       33  33 100 CALM      29.96S VSB 1/4
WISC RAPIDS    LGT SNOW  33  31  92 E5        29.96S FOG     WCI  29
CAMP DOUGLAS   CLOUDY    32  32 100 E3        29.94F FOG
$$

WIZ011>013-019>022-031-037>040-048>050-270900-
NORTHEAST WISCONSIN

CITY           SKY/WX    TMP DP  RH WIND       PRES   REMARKS
ANTIGO         CLOUDY    31  31  99 E5        29.95S WCI  26
SHAWANO        CLOUDY    34  33  96 NE3       29.98R FOG
OCONTO         CLOUDY    33  33 100 NE3       29.98F
STURGEON BAY   CLOUDY    36  34  93 NE7       29.98F WCI  30
GREEN BAY      CLOUDY    34  33  96 NE7       29.97S FOG     WCI  28
MANITOWOC      FOG       36  36 100 CALM      29.97S VSB 1/4
APPLETON       FOG       32  32 100 E3        29.97R VSB 1/4
CLINTONVILLE   CLOUDY    32  32 100 NE3       29.97S FOG
OSHKOSH        CLOUDY    33  31  92 CALM      29.96R FOG
$$

WIZ032>034-041-042-053>061-270900-
SOUTHWEST WISCONSIN

CITY           SKY/WX    TMP DP  RH WIND       PRES   REMARKS
LA CROSSE      CLOUDY    34  32  92 NW7       29.94F FOG     WCI  28
SPARTA         CLOUDY    33  33  99 CALM      29.95S FOG
VIROQUA        CLOUDY    33  33 100 CALM      29.92R
BOSCOBEL       CLOUDY    34  31  88 CALM      29.94S
PRAIRIE DU CHI DRIZZLE   34  32  93 CALM      29.94R
PLATTEVILLE    CLOUDY    38  37  94 E5        29.94S WCI  35
$$

WIZ056-057-062-063-064-067-068-270900-
SOUTH CENTRAL WISCONSIN

CITY           SKY/WX    TMP DP  RH WIND       PRES   REMARKS
REEDSBURG      LGT RAIN  32  32  99 CALM      29.94S
BARABOO/DELLS  CLOUDY    32  31  97 CALM      29.93F FOG
LONE ROCK      LGT RAIN  37  33  85 CALM      29.94F
MINERAL POINT  LGT RAIN  39  36  87 CALM      29.93S
MADISON        CLOUDY    36  34  92 CALM      29.94S
MIDDLETON      CLOUDY    36  36  99 CALM      29.95R
WATERTOWN      DRIZZLE   38  38 100 CALM      29.94F
MONROE         CLOUDY    41  41 100 SE5       29.93S
JANESVILLE     CLOUDY    43  41  93 SE6       29.95S
$$

WIZ051-052-058>065-066-070>072-270900-
SOUTHEAST WISCONSIN

CITY           SKY/WX    TMP DP  RH WIND       PRES   REMARKS
MILWAUKEE      CLOUDY    45  40  82 S9        29.98R
WAUKESHA       LGT RAIN  39  37  93 S6        29.98R WCI  35
MILWAUKEE/TIMM CLOUDY    41  37  87 S5        29.98R
RACINE         CLOUDY    45  39  79 S6        30.00S
BURLINGTON     CLOUDY    42  40  93 S5        29.96F
KENOSHA        CLOUDY    45  41  86 S6        29.98S
FOND DU LAC    CLOUDY    33  30  88 CALM      29.96R FOG
SHEBOYGAN      CLOUDY    34  32  92 CALM      29.97S FOG
WEST BEND      CLOUDY    34  32  93 CALM      29.96S
JUNEAU         CLOUDY    36  34  93 E3        29.95S
$$

LSZ147-162-270900-
LAKE SUPERIOR

STATION/POSITION TIME  TEMP    WIND        PRES    WAVE
                       AIR SEA DIR/SP/G            HT/PER
                 (UTC) (F)     (DEG/KT/KT) (MB)    (FT/S)
DEVILS ISLAND    0800   29      10/ 15/ 17 1018.8F
PORT WING        0700   29      10/ 10/ 15 1018.6
SAXON HARBOR     0700   31     350/ 10/ 12 1017.9F
$$

LMZ867-665-643>646-270900-
LAKE MICHIGAN

STATION/POSITION TIME  TEMP    WIND        PRES    WAVE
                       AIR SEA DIR/SP/G            HT/PER
                 (UTC) (F)     (DEG/KT/KT) (MB)    (FT/S)
CHAMBERS ISLAND  0700   34      20/  9/ 10 1015.9F
NORTHPORT PIER   0700   35      20/  3/  4 1015.9F
SISTER BAY       0713             CALM       N/A
ALGOMA LAKESHORE 0630           70/  9/ 12   N/A
KEWAUNEE LAKESHO 0700   36      30/  3/  5 1014.7F
SHEBOYGAN LAKESH 0800   38 38   70/  1/  2 1015.5F
PORT WASHINGTON  0740   37      20/  2/  3 1015.9F
MILWAUKEE LAKESH 0700   41     140/  3/  3   N/A
KENOSHA   LAKESH 0800   40     180/  8/  9 1015.2F
$$

TC  - TEMPERATURE IN CELSIUS
VSB - VISIBILITY IN STATUTE MILES
WCI - WIND CHILL INDEX
HX  - HEAT INDEX



USA.gov is the U.S. government's official web portal to all federal, state and local government web resources and services.